User: anonymous
Location: Unspecified
(0.0000°N, 0.0000°E)
Time: 10:41:29
(UTC+00:00)
Language:

Optus B1 - Orbit

View from above orbital plane
View from above orbital plane
View from above satellite
View from above satellite

Ground track
Ground track

The orbit data is extracted from the following two-line orbital elements,

1 22087U 92054A   14208.90109753 -.00000221  00000-0  00000+0 0  9588
2 22087 006.9669 055.2458 0012449 039.0451 290.0575 00.99205344 91620
Epoch (UTC): 27 July 2014 21:37:34
Eccentricity: 0.0012449
inclination: 6.9669°
perigee height: 36035 km
apogee height: 36141 km
right ascension of ascending node: 55.2458°
argument of perigee: 39.0451°
revolutions per day: 0.99205344
mean anomaly at epoch: 290.0575°
orbit number at epoch: 9162

The dashed part of the orbit path shows where the satellite is in the earth's shadow,  

DLR